Wind_Speed
3 4 5 4 5 4 5 6 7 9 10 11 12 12 12 12 12 12 11 10 10 9 9 8 8 7 7 6 6 5 5 5 5 5 5 6 6 6 6 5 5 5 5
3 4 5 5 5 5 5 5 7 8 9 10 11 11 11 11 11 11 11 10 10 9 8 8 8 7 7 6 6 5 5 5 5 5 5 5 5 6 5 5 5 5 5
4 4 5 5 6 6 6 6 7 8 9 9 10 10 10 10 10 10 10 9 9 8 8 8 7 7 6 6 5 5 5 5 5 5 5 5 5 5 5 5 5 5 5
5 5 6 7 7 7 7 7 7 7 8 8 9 9 9 9 9 9 9 9 8 8 7 7 6 6 6 5 5 5 5 5 5 5 5 5 4 5 5 5 5 4 4
6 6 7 7 7 7 7 7 7 7 7 8 8 8 8 8 8 7 7 7 7 7 6 6 5 4 4 4 4 4 5 5 5 5 5 4 4 4 4 4 4 4 4
7 7 8 9 9 8 8 8 8 8 8 8 8 7 7 7 7 6 6 6 5 5 5 5 4 3 3 3 4 4 4 4 4 4 4 4 4 4 4 3 4 4 4
7 8 9 10 10 9 9 9 9 9 8 8 7 7 6 6 6 5 4 4 4 3 3 3 3 2 2 2 3 2 2 3 3 3 4 4 5 5 4 4 4 4 4
7 8 10 11 11 11 10 10 10 9 9 8 8 7 6 5 5 4 3 3 2 2 2 2 1 1 1 1 2 2 2 3 3 3 4 5 5 5 5 4 4 4 4
8 8 10 11 12 11 11 11 10 10 10 9 8 7 6 5 4 3 2 2 1 1 1 1 0 0 1 1 2 2 2 3 3 3 4 5 5 6 5 5 5 5 5
9 9 11 11 12 12 12 12 11 11 10 10 8 7 6 5 4 2 2 1 1 1 1 1 1 2 2 2 2 2 3 3 3 4 4 5 6 6 6 6 6 6 6
11 11 12 13 13 13 13 13 12 12 11 10 9 7 6 5 4 3 2 1 1 1 1 2 2 2 2 2 2 3 3 4 4 5 5 6 6 6 7 7 7 7 7
13 13 13 14 15 14 14 13 13 12 12 11 10 8 7 6 5 4 3 3 2 2 2 2 3 3 3 3 3 4 4 5 5 5 6 7 7 7 7 8 8 8 7
14 15 15 16 17 16 15 15 14 13 12 11 10 9 8 7 6 5 4 3 3 3 2 2 3 3 3 4 4 5 5 5 6 6 6 7 8 9 9 9 10 9 9
15 16 16 16 17 17 17 16 15 14 13 12 11 10 8 7 7 6 5 4 3 3 3 3 3 4 4 5 5 5 6 6 7 7 7 7 8 9 10 10 10 10 11
13 16 17 17 18 17 17 16 16 15 13 12 12 10 9 8 7 6 5 4 4 3 4 4 4 4 4 5 6 6 7 7 7 7 7 8 9 9 11 11 11 11 11
15 16 17 18 19 18 18 18 16 15 14 13 12 10 10 9 8 7 5 4 4 4 4 4 4 4 4 5 5 6 7 7 7 7 7 7 8 9 10 11 11 11 11
15 17 18 19 20 20 20 19 18 17 15 14 12 11 10 9 8 7 5 4 4 4 4 3 3 3 3 4 5 5 6 7 7 7 7 8 8 9 9 10 11 12 12
16 17 19 21 21 21 21 19 19 18 17 15 14 12 11 10 9 7 6 5 4 3 3 3 2 2 2 2 3 4 5 5 6 7 7 7 7 8 9 9 10 11 12
17 18 20 21 22 21 21 21 20 20 19 17 15 14 12 11 10 8 6 5 4 3 2 2 2 1 1 1 1 2 2 3 4 5 5 6 7 7 8 9 9 10 11
16 18 19 21 21 22 22 21 21 20 19 18 17 15 13 12 10 8 6 5 4 3 2 2 1 1 1 1 0 0 1 1 2 3 4 5 6 7 8 8 9 9 10
17 18 19 20 21 21 22 21 20 19 19 18 17 16 14 12 10 8 7 6 5 3 2 2 2 2 1 1 1 0 0 0 1 2 3 4 4 5 6 7 8 9 9
16 18 19 19 21 22 21 20 20 19 19 19 18 17 15 13 11 9 8 7 5 4 3 3 2 2 1 1 1 0 0 1 1 2 2 3 4 4 5 6 6 7 8
16 17 17 19 21 22 22 21 21 20 19 19 18 16 15 14 12 11 9 7 6 5 4 3 3 2 2 1 1 1 0 1 1 2 3 3 4 4 5 5 6 7 8
13 15 16 17 19 21 21 21 21 20 19 18 18 17 15 14 12 11 9 8 7 6 5 4 3 2 2 1 1 0 1 1 2 2 3 4 4 5 5 6 6 7 8
13 13 15 16 17 20 20 20 21 21 20 18 18 17 15 14 13 11 10 9 8 7 6 5 4 3 2 2 1 1 1 1 2 3 3 4 4 5 6 6 7 7 8
12 13 14 15 17 18 19 20 20 21 20 19 18 17 15 14 13 11 10 10 9 8 7 6 4 4 3 3 2 2 2 2 3 3 4 5 5 6 6 7 7 8 8
Wind_Direction
157 156 153 145 143 144 140 133 128 124 119 114 111 108 104 101 98 95 91 89 87 87 87 87 86 87 90 93 97 101 103 103 102 103 103 106 106 109 111 110 103 102 103
180 174 169 165 160 161 160 148 138 132 126 119 114 110 107 103 99 95 92 89 87 87 87 87 90 89 89 95 102 105 105 109 112 112 110 111 114 115 114 112 107 106 105
197 184 183 179 174 175 177 168 153 141 134 125 119 115 111 107 102 98 94 90 87 87 87 87 88 87 88 95 103 108 111 119 121 123 119 118 120 119 119 118 114 110 112
209 197 187 189 186 183 181 176 165 151 142 134 128 123 118 113 108 102 98 95 91 87 86 88 89 89 91 99 108 114 118 126 133 131 127 124 123 123 123 126 124 119 123
209 206 198 198 196 191 186 180 171 162 154 145 138 133 128 122 116 110 102 98 94 89 84 83 88 91 92 97 111 122 123 126 136 138 137 133 133 132 134 133 132 132 135
208 208 205 201 199 195 192 189 181 173 166 157 151 146 139 133 127 121 110 101 95 90 82 77 84 91 100 110 119 124 128 134 143 147 151 153 154 152 150 144 139 143 145
212 210 209 205 199 196 196 195 189 181 176 170 162 156 150 145 140 134 123 109 98 87 75 72 80 91 108 126 135 138 148 149 159 166 167 165 166 164 161 163 159 160 156
220 216 211 213 207 202 200 198 193 187 182 179 174 168 163 159 152 146 136 124 112 91 68 59 74 96 125 146 156 157 171 174 172 172 184 184 180 177 176 174 177 178 172
227 223 216 211 208 205 204 202 198 192 188 185 184 179 174 169 163 156 147 142 150 134 48 359 330 170 165 184 192 197 194 199 199 192 199 200 199 195 194 190 190 193 194
236 227 218 215 212 210 208 205 202 198 195 192 191 189 186 183 182 180 174 164 176 205 281 287 255 233 224 214 215 217 210 216 218 216 217 213 212 211 209 206 203 204 204
236 229 223 220 218 215 213 208 206 203 201 199 197 197 198 201 206 215 217 222 232 262 277 269 244 238 236 236 234 230 223 227 231 225 224 220 218 220 219 218 216 213 214
231 229 228 225 223 218 215 212 209 207 204 202 201 204 209 214 220 231 240 245 260 279 278 260 247 248 249 246 245 239 233 236 240 231 226 224 225 228 227 227 228 224 223
229 228 228 226 223 220 217 215 213 211 209 207 206 210 217 221 227 238 243 249 267 281 280 259 250 246 252 254 252 248 245 245 243 237 233 234 235 236 235 238 237 235 231
228 226 224 225 221 220 219 217 217 214 211 211 211 215 221 226 230 234 241 253 268 279 270 259 257 253 258 254 252 250 249 250 246 240 236 238 241 243 243 245 247 245 241
234 228 223 221 221 221 220 220 220 217 216 215 217 222 223 228 231 230 236 246 260 261 257 258 261 263 261 257 252 248 247 248 248 243 242 245 250 250 250 248 249 250 248
237 232 226 225 222 221 221 221 221 219 218 219 222 224 225 227 228 227 232 245 258 260 259 260 265 266 263 263 259 254 250 248 241 240 245 256 260 257 256 255 252 251 249
236 232 228 224 222 222 222 222 223 220 220 219 221 223 224 225 226 226 234 248 257 257 257 253 259 268 263 263 261 257 253 246 241 241 251 264 266 264 264 263 260 256 251
234 231 229 226 224 223 223 224 224 220 219 219 221 223 224 224 228 233 237 242 250 252 244 236 236 261 273 272 265 256 251 246 247 250 260 270 272 272 272 269 268 264 261
233 230 230 226 223 223 222 222 221 221 218 219 221 223 224 224 228 230 228 226 231 233 226 214 221 260 292 288 276 266 259 254 252 257 266 274 277 277 277 274 276 275 270
234 228 227 225 222 221 220 221 220 220 219 220 219 222 222 222 222 223 218 219 218 216 213 206 204 232 265 259 243 257 261 260 264 269 271 277 284 284 282 281 280 280 279
231 230 227 223 220 220 219 221 220 219 218 217 215 215 216 217 218 217 212 210 207 206 197 200 209 209 204 205 210 160 165 283 296 302 295 290 300 300 295 292 289 289 289
231 231 226 221 217 218 219 220 217 216 215 213 213 215 216 216 215 209 206 206 204 201 195 196 193 184 176 182 200 184 192 320 319 321 319 315 314 311 314 309 300 296 294
227 228 226 223 218 218 218 217 214 214 216 214 214 215 217 215 213 206 204 204 203 207 206 198 184 183 186 197 212 220 266 320 320 315 319 324 322 322 323 320 315 309 302
221 222 219 217 215 216 216 214 213 211 213 214 214 214 214 211 205 202 202 202 203 202 198 193 189 193 200 202 207 246 337 343 341 330 327 326 326 325 322 321 318 314 309
215 216 215 215 214 215 214 212 210 211 212 213 212 210 210 204 201 202 202 202 201 198 199 202 205 207 206 203 211 246 311 330 331 328 329 325 322 320 319 319 319 317 314
213 214 215 216 212 211 214 213 213 211 210 210 209 209 207 204 203 204 206 205 201 202 203 207 212 215 216 220 237 260 290 311 315 315 318 319 317 316 316 315 316 316 316
Height
5888 5889 5889 5890 5890 5890 5891 5891 5890 5890 5891 5891 5891 5891 5891 5892 5892 5892 5892 5892 5893 5893 5893 5893 5893 5893 5893 5893 5893 5893 5893 5893 5893 5893 5893 5893 5893 5894 5893 5893 5894 5893 5893
5888 5888 5889 5889 5890 5890 5891 5891 5891 5891 5891 5891 5892 5892 5892 5892 5893 5893 5893 5893 5894 5894 5894 5894 5894 5894 5894 5894 5894 5894 5894 5894 5894 5894 5894 5894 5894 5894 5894 5894 5894 5894 5894
5887 5887 5888 5889 5890 5890 5891 5891 5891 5892 5892 5892 5892 5892 5893 5893 5893 5894 5894 5894 5894 5895 5895 5895 5894 5894 5894 5894 5894 5894 5895 5895 5895 5895 5895 5895 5895 5895 5895 5895 5895 5895 5895
5886 5886 5887 5888 5889 5890 5891 5891 5892 5892 5892 5893 5893 5893 5893 5894 5894 5894 5895 5895 5895 5895 5895 5895 5895 5895 5895 5895 5895 5895 5895 5895 5895 5896 5896 5896 5896 5896 5896 5896 5896 5896 5896
5884 5885 5886 5887 5888 5889 5890 5891 5891 5892 5892 5893 5893 5894 5894 5894 5895 5895 5895 5896 5896 5896 5896 5896 5895 5895 5895 5895 5895 5895 5895 5896 5896 5896 5896 5896 5896 5897 5897 5897 5897 5897 5897
5883 5884 5885 5886 5887 5888 5889 5890 5891 5892 5892 5893 5893 5894 5894 5895 5895 5896 5896 5896 5896 5896 5896 5896 5896 5896 5895 5896 5896 5896 5896 5896 5896 5896 5896 5896 5897 5897 5898 5898 5898 5898 5898
5882 5883 5884 5885 5886 5887 5888 5889 5890 5891 5892 5893 5893 5894 5895 5895 5895 5896 5896 5896 5896 5896 5896 5896 5896 5896 5896 5896 5896 5896 5896 5896 5896 5896 5896 5897 5897 5898 5898 5898 5898 5898 5899
5881 5881 5882 5883 5885 5886 5887 5888 5889 5890 5891 5892 5893 5894 5894 5895 5895 5896 5896 5896 5896 5896 5896 5896 5896 5896 5896 5896 5896 5896 5896 5896 5896 5896 5897 5897 5897 5898 5898 5898 5899 5899 5899
5879 5880 5881 5882 5883 5884 5886 5887 5888 5889 5890 5891 5892 5893 5894 5895 5895 5895 5896 5896 5896 5896 5896 5895 5895 5895 5895 5895 5895 5896 5896 5896 5896 5896 5896 5897 5897 5898 5898 5898 5898 5899 5899
5878 5878 5879 5880 5882 5883 5884 5886 5887 5888 5889 5890 5891 5892 5893 5894 5895 5895 5895 5895 5895 5895 5895 5895 5895 5895 5895 5895 5895 5895 5895 5895 5896 5896 5896 5896 5897 5897 5898 5898 5898 5898 5899
5876 5876 5877 5879 5880 5881 5882 5884 5885 5887 5888 5889 5890 5891 5892 5893 5894 5894 5894 5895 5894 5894 5894 5894 5894 5894 5894 5894 5894 5895 5895 5895 5895 5895 5896 5896 5896 5897 5897 5897 5898 5898 5898
5873 5874 5875 5876 5878 5879 5880 5882 5883 5885 5886 5887 5888 5890 5891 5892 5893 5893 5894 5894 5894 5893 5893 5893 5893 5893 5893 5893 5893 5894 5894 5894 5894 5894 5895 5895 5896 5896 5896 5897 5897 5897 5897
5870 5871 5872 5873 5875 5877 5879 5880 5882 5883 5884 5886 5887 5888 5889 5890 5891 5892 5893 5892 5893 5892 5892 5892 5892 5892 5892 5892 5893 5893 5893 5893 5893 5894 5894 5894 5895 5895 5895 5896 5896 5896 5896
5866 5868 5869 5871 5872 5874 5876 5878 5880 5881 5882 5884 5885 5887 5888 5889 5890 5891 5891 5892 5892 5891 5891 5891 5891 5891 5891 5891 5891 5892 5892 5892 5892 5892 5893 5893 5893 5894 5894 5894 5894 5894 5894
5863 5865 5866 5868 5870 5872 5874 5876 5878 5880 5881 5882 5883 5885 5886 5888 5889 5889 5890 5890 5890 5890 5890 5890 5890 5890 5890 5890 5890 5890 5891 5891 5891 5891 5892 5892 5892 5892 5892 5892 5892 5892 5893
5861 5862 5864 5866 5868 5870 5872 5874 5876 5877 5879 5880 5882 5883 5885 5886 5887 5888 5889 5889 5889 5889 5889 5889 5889 5889 5889 5889 5889 5889 5889 5890 5890 5890 5891 5891 5891 5891 5891 5891 5890 5890 5890
5857 5859 5861 5863 5865 5867 5869 5871 5873 5875 5877 5879 5880 5882 5883 5884 5886 5887 5887 5888 5888 5888 5888 5888 5888 5888 5888 5888 5888 5888 5888 5888 5889 5889 5889 5889 5889 5889 5889 5889 5889 5889 5889
5854 5855 5857 5859 5862 5864 5866 5869 5870 5873 5875 5876 5878 5880 5881 5883 5884 5885 5886 5887 5887 5887 5887 5887 5887 5887 5887 5887 5887 5887 5887 5887 5888 5888 5888 5888 5888 5888 5888 5888 5887 5887 5887
5851 5852 5853 5855 5858 5861 5863 5865 5867 5870 5872 5874 5876 5878 5880 5881 5883 5884 5885 5885 5886 5886 5886 5887 5887 5887 5887 5886 5886 5887 5887 5887 5887 5887 5887 5887 5887 5887 5886 5886 5886 5886 5885
5847 5848 5850 5852 5855 5857 5860 5862 5865 5867 5870 5872 5874 5876 5878 5880 5881 5882 5883 5884 5885 5885 5886 5886 5887 5886 5886 5886 5886 5886 5886 5886 5887 5887 5886 5886 5886 5885 5885 5885 5884 5884 5884
5843 5845 5847 5848 5851 5854 5857 5859 5862 5864 5867 5869 5872 5874 5876 5878 5880 5881 5882 5883 5884 5885 5885 5886 5886 5886 5886 5886 5886 5886 5886 5886 5886 5886 5886 5886 5885 5885 5884 5884 5883 5883 5882
5840 5841 5843 5844 5848 5850 5854 5857 5859 5862 5864 5867 5869 5872 5874 5876 5878 5879 5881 5882 5883 5884 5885 5885 5886 5886 5886 5886 5886 5886 5886 5887 5886 5885 5885 5885 5885 5884 5883 5883 5882 5882 5881
5837 5838 5839 5841 5844 5847 5850 5854 5856 5859 5862 5865 5867 5870 5872 5874 5876 5878 5880 5881 5882 5883 5884 5885 5885 5886 5886 5886 5886 5886 5886 5886 5886 5885 5885 5885 5884 5884 5883 5882 5881 5881 5880
5834 5835 5837 5838 5841 5844 5847 5851 5854 5857 5860 5863 5865 5868 5870 5872 5875 5876 5878 5880 5881 5882 5883 5884 5885 5885 5886 5886 5886 5886 5886 5886 5885 5885 5885 5884 5884 5883 5882 5881 5881 5880 5879
5831 5833 5835 5837 5839 5842 5845 5849 5851 5854 5857 5860 5863 5866 5868 5871 5873 5875 5877 5879 5880 5882 5883 5884 5884 5885 5885 5886 5886 5885 5885 5885 5885 5884 5884 5884 5883 5882 5882 5881 5880 5879 5878
5830 5831 5833 5835 5837 5840 5843 5846 5849 5852 5854 5857 5861 5864 5866 5869 5872 5874 5876 5877 5879 5881 5882 5883 5883 5884 5885 5885 5885 5885 5885 5884 5884 5884 5883 5883 5882 5881 5880 5880 5879 5878 5876